Showing default

SEDNA-1, 60580

Orbit data source: Space-Track

SEDNA-1, 60580 is a payload satellite owned by AAC ClydeSpace (US) in SSO that was launched on Fri, 16 Aug 2024 UTC via an FALCON 9 launch vehicle from the Air Force Western Test Range (AFWTR). Payload-class satellites include a variety of spacecraft equipped with specific instruments for various scientific and technological missions. These include communications satellites like Starlink; space stations such as the ISS; scientific satellites like the Hubble; Earth observation satellites from companies like Planet Labs, Umbra, and HawkEye 360; GPS; miniature CubeSats for education and research; and military/defense satellites.

Loading next visibility...
Identifier
60580, 2024-149DS
Orbit
SSO
Country
Flag of USUS
Related business
Manufacturer
AAC ClydeSpace
Mission
Operational Commercial Communications
Bus & Motor
CUBESAT 3U, Unknown motor
Mass
4 kg wet, 4 kg dry
Launch date (UTC)
2024-08-16 (2 years ago)
Launch vehicle
FALCON 9
Launch site
Air Force Western Test Range (AFWTR)
Object type
Payload
Rocket body
Debris
Shape & HBR
Box, 0.2 m
Radar Cross Section
0.035 m², Medium (>0.1 m² and < 1m²)

Expand to show TLE details & history
Last TLE update: 8 hours ago

TLE from 8 hours ago
0 SEDNA-1
1 60580U 24149DS  26265.17875328  .00004892  00000-0  32113-3 0  9997
2 60580  97.6575 345.2724 0009057  25.8706 334.2973 15.08080953115003
Epoch: 2026-09-22T04:17Z
TLE epoch observation values (Epoch: 2026-09-22T04:17:24.283Z)
Latitude
-0.00003°
Longitude
-80.12673°
Altitude
539.484 km
Speed
7.596 km/s
True Right ascension
23h 01m 05s
True Declination
0° 00' 00"
Sunlit
Object was in full shadow at epoch
Visualization orbit readout
Latitude
Unknown
Longitude
Unknown
Altitude
Unknown
Speed
Unknown
Apparent Right ascension
Unknown
Apparent Declination
Unknown
Sunlit
N/A
Visualization observer readout
Local Sidereal Time
05:26:55
Azimuth
Unknown
Elevation
Unknown
Doppler factor
Unknown
Orbital elements
Apogee altitude
545.322 km
Perigee altitude
532.792 km
Semi-major axis
6,917.194 km
Eccentricity
0.00091
Inclination
97.6575°
RAAN
345.2724°
Arg. of periapsis
25.8706°
True anomaly
334.25224°
Mean anomaly
334.2973°
Eccentric anomaly
334.27478°
Mean motion
3.77266 °/min
Orbital period
95.42 mins
BSTAR
0.00032113
Loading maneuver chart data...
Computing Atmospheric mass density...
Loading historical data...
Loading historical data...
Loading historical data...
Loading historical data...
Loading historical data...
Loading historical data...
Loading historical data...

Documentation

Showing up to 5 results
|